Time,TemperatureF,DewpointF,PressureIn,WindDirection,WindDirectionDegrees,WindSpeedMPH,WindSpeedGustMPH,Humidity,HourlyPrecipIn,Conditions,Clouds,dailyrainin,SoftwareType,DateUTC
2013-06-04 00:04:00,66.4,64.3,29.79,North,0,0.0,-999.0,93,-99.99,,,1.19,Acu-Link.com,2013-06-04 04:04:00,
2013-06-04 00:19:00,66.0,63.9,29.80,SW,225,0.0,-999.0,93,-99.99,,,1.19,Acu-Link.com,2013-06-04 04:19:00,
2013-06-04 00:35:00,66.0,64.2,29.80,SSW,202,0.0,-999.0,94,-99.99,,,1.19,Acu-Link.com,2013-06-04 04:35:00,
2013-06-04 00:50:00,66.2,64.4,29.80,SSW,202,0.0,-999.0,94,-99.99,,,1.19,Acu-Link.com,2013-06-04 04:50:00,
2013-06-04 01:05:00,66.6,64.8,29.79,East,90,0.0,-999.0,94,-99.99,,,0.00,Acu-Link.com,2013-06-04 05:05:00,
2013-06-04 01:20:00,66.4,64.6,29.80,WSW,247,0.0,-999.0,94,-99.99,,,0.00,Acu-Link.com,2013-06-04 05:20:00,
2013-06-04 01:35:00,66.0,64.2,29.79,WNW,292,0.0,-999.0,94,-99.99,,,0.00,Acu-Link.com,2013-06-04 05:35:00,
2013-06-04 01:50:00,65.7,63.9,29.79,NW,315,0.0,-999.0,94,-99.99,,,0.00,Acu-Link.com,2013-06-04 05:50:00,
2013-06-04 02:05:00,65.7,63.9,29.79,NW,315,0.0,-999.0,94,-99.99,,,0.00,Acu-Link.com,2013-06-04 06:05:00,
2013-06-04 02:20:00,65.3,63.5,29.78,NE,45,0.0,-999.0,94,-99.99,,,0.00,Acu-Link.com,2013-06-04 06:20:00,
2013-06-04 02:35:00,65.3,63.8,29.79,WSW,247,0.0,-999.0,95,-99.99,,,0.00,Acu-Link.com,2013-06-04 06:35:00,
2013-06-04 02:51:00,65.3,63.8,29.78,East,90,0.0,-999.0,95,-99.99,,,0.00,Acu-Link.com,2013-06-04 06:51:00,
2013-06-04 03:06:00,65.3,63.8,29.78,West,270,0.0,-999.0,95,-99.99,,,0.00,Acu-Link.com,2013-06-04 07:06:00,
2013-06-04 03:21:00,65.3,63.8,29.79,West,270,0.0,-999.0,95,-99.99,,,0.00,Acu-Link.com,2013-06-04 07:21:00,
2013-06-04 03:36:00,65.3,63.8,29.78,East,90,0.0,-999.0,95,-99.99,,,0.00,Acu-Link.com,2013-06-04 07:36:00,
2013-06-04 04:07:00,65.3,63.8,29.78,ESE,112,0.0,-999.0,95,-99.99,,,0.00,Acu-Link.com,2013-06-04 08:07:00,
2013-06-04 04:23:00,65.3,63.8,29.78,East,90,0.0,-999.0,95,-99.99,,,0.00,Acu-Link.com,2013-06-04 08:23:00,
2013-06-04 04:38:00,65.1,63.6,29.78,NNE,22,1.7,-999.0,95,-99.99,,,0.00,Acu-Link.com,2013-06-04 08:38:00,
2013-06-04 04:53:00,65.1,63.6,29.78,West,270,0.0,-999.0,95,-99.99,,,0.00,Acu-Link.com,2013-06-04 08:53:00,
2013-06-04 05:08:00,65.1,63.6,29.78,NNE,22,0.0,-999.0,95,-99.99,,,0.00,Acu-Link.com,2013-06-04 09:08:00,
2013-06-04 05:23:00,65.1,63.9,29.78,WNW,292,0.0,-999.0,96,-99.99,,,0.00,Acu-Link.com,2013-06-04 09:23:00,
2013-06-04 05:38:00,66.2,64.7,29.81,NNW,337,2.7,-999.0,95,-99.99,,,0.00,Acu-Link.com,2013-06-04 09:38:00,
2013-06-04 05:53:00,66.4,64.6,29.81,NW,315,1.7,-999.0,94,-99.99,,,0.00,Acu-Link.com,2013-06-04 09:53:00,
2013-06-04 06:09:00,66.6,64.8,29.81,NE,45,0.0,-999.0,94,-99.99,,,0.00,Acu-Link.com,2013-06-04 10:09:00,
2013-06-04 06:24:00,66.7,64.9,29.81,NE,45,0.0,-999.0,94,-99.99,,,0.00,Acu-Link.com,2013-06-04 10:24:00,
2013-06-04 06:39:00,66.7,64.9,29.82,East,90,0.0,-999.0,94,-99.99,,,0.00,Acu-Link.com,2013-06-04 10:39:00,
2013-06-04 06:54:00,66.7,64.9,29.83,ENE,67,0.0,-999.0,94,-99.99,,,0.00,Acu-Link.com,2013-06-04 10:54:00,
2013-06-04 07:09:00,67.3,65.2,29.83,NE,45,0.0,-999.0,93,-99.99,,,0.00,Acu-Link.com,2013-06-04 11:09:00,
2013-06-04 07:24:00,67.6,65.5,29.83,NE,45,1.1,-999.0,93,-99.99,,,0.00,Acu-Link.com,2013-06-04 11:24:00,
2013-06-04 07:39:00,68.2,65.8,29.83,East,90,0.0,-999.0,92,-99.99,,,0.00,Acu-Link.com,2013-06-04 11:39:00,
2013-06-04 07:54:00,69.4,65.7,29.84,NE,45,2.7,-999.0,88,-99.99,,,0.00,Acu-Link.com,2013-06-04 11:54:00,
2013-06-04 08:09:00,70.3,65.9,29.84,NE,45,1.1,-999.0,86,-99.99,,,0.00,Acu-Link.com,2013-06-04 12:09:00,
2013-06-04 08:25:00,70.7,65.6,29.85,North,0,3.2,-999.0,84,-99.99,,,0.00,Acu-Link.com,2013-06-04 12:25:00,
2013-06-04 08:40:00,71.6,65.8,29.84,NE,45,2.2,-999.0,82,-99.99,,,0.00,Acu-Link.com,2013-06-04 12:40:00,
2013-06-04 08:55:00,75.4,66.9,29.85,ENE,67,2.7,-999.0,75,-99.99,,,0.00,Acu-Link.com,2013-06-04 12:55:00,
2013-06-04 09:10:00,78.1,67.5,29.85,East,90,3.7,-999.0,70,-99.99,,,0.00,Acu-Link.com,2013-06-04 13:10:00,
2013-06-04 09:25:00,77.7,67.9,29.86,ENE,67,3.7,-999.0,72,-99.99,,,0.00,Acu-Link.com,2013-06-04 13:25:00,
2013-06-04 09:40:00,75.2,67.5,29.86,SE,135,4.7,-999.0,77,-99.99,,,0.00,Acu-Link.com,2013-06-04 13:40:00,
2013-06-04 09:55:00,75.7,67.6,29.87,East,90,3.2,-999.0,76,-99.99,,,0.00,Acu-Link.com,2013-06-04 13:55:00,
2013-06-04 10:10:00,75.6,67.1,29.86,SSE,157,2.7,-999.0,75,-99.99,,,0.00,Acu-Link.com,2013-06-04 14:10:00,
2013-06-04 10:25:00,75.0,67.3,29.87,East,90,2.7,-999.0,77,-99.99,,,0.00,Acu-Link.com,2013-06-04 14:25:00,
2013-06-04 11:26:00,79.3,69.1,29.88,SE,135,1.7,-999.0,71,-99.99,,,0.00,Acu-Link.com,2013-06-04 15:26:00,
2013-06-04 11:41:00,79.2,69.4,29.88,ESE,112,1.7,-999.0,72,-99.99,,,0.00,Acu-Link.com,2013-06-04 15:41:00,
2013-06-04 11:56:00,79.2,68.1,29.88,NNE,22,3.7,-999.0,69,-99.99,,,0.00,Acu-Link.com,2013-06-04 15:56:00,
2013-06-04 12:12:00,80.2,68.2,29.89,ENE,67,2.7,-999.0,67,-99.99,,,0.00,Acu-Link.com,2013-06-04 16:12:00,
2013-06-04 12:27:00,77.9,68.1,29.89,East,90,2.7,-999.0,72,-99.99,,,0.00,Acu-Link.com,2013-06-04 16:27:00,
2013-06-04 12:42:00,80.8,69.2,29.88,ENE,67,2.7,-999.0,68,-99.99,,,0.00,Acu-Link.com,2013-06-04 16:42:00,
2013-06-04 12:57:00,82.0,68.6,29.88,ESE,112,4.2,-999.0,64,-99.99,,,0.00,Acu-Link.com,2013-06-04 16:57:00,
2013-06-04 13:12:00,79.5,67.6,29.87,ENE,67,2.2,-999.0,67,-99.99,,,0.00,Acu-Link.com,2013-06-04 17:12:00,
2013-06-04 13:27:00,78.8,67.7,29.86,East,90,2.7,-999.0,69,-99.99,,,0.00,Acu-Link.com,2013-06-04 17:27:00,
2013-06-04 13:42:00,80.4,68.0,29.86,East,90,1.7,-999.0,66,-99.99,,,0.00,Acu-Link.com,2013-06-04 17:42:00,
2013-06-04 13:57:00,81.0,69.8,29.86,SE,135,2.7,-999.0,69,-99.99,,,0.00,Acu-Link.com,2013-06-04 17:57:00,
2013-06-04 14:12:00,81.9,70.7,29.86,East,90,3.2,-999.0,69,-99.99,,,0.00,Acu-Link.com,2013-06-04 18:12:00,
2013-06-04 14:27:00,81.7,69.7,29.85,East,90,1.7,-999.0,67,-99.99,,,0.00,Acu-Link.com,2013-06-04 18:27:00,
2013-06-04 14:43:00,82.9,69.4,29.84,North,0,2.7,-999.0,64,-99.99,,,0.00,Acu-Link.com,2013-06-04 18:43:00,
2013-06-04 14:58:00,82.9,69.0,29.84,East,90,2.2,-999.0,63,-99.99,,,0.00,Acu-Link.com,2013-06-04 18:58:00,
2013-06-04 15:13:00,80.8,69.7,29.85,East,90,3.2,-999.0,69,-99.99,,,0.00,Acu-Link.com,2013-06-04 19:13:00,
2013-06-04 15:28:00,81.7,70.5,29.85,East,90,2.2,-999.0,69,-99.99,,,0.00,Acu-Link.com,2013-06-04 19:28:00,
2013-06-04 15:43:00,82.6,68.7,29.84,ESE,112,2.2,-999.0,63,-99.99,,,0.00,Acu-Link.com,2013-06-04 19:43:00,
2013-06-04 15:58:00,82.8,69.4,29.84,ESE,112,2.2,-999.0,64,-99.99,,,0.00,Acu-Link.com,2013-06-04 19:58:00,
2013-06-04 16:13:00,81.0,69.0,29.84,ENE,67,2.2,-999.0,67,-99.99,,,0.00,Acu-Link.com,2013-06-04 20:13:00,
2013-06-04 16:28:00,79.5,69.7,29.84,NE,45,3.2,-999.0,72,-99.99,,,0.00,Acu-Link.com,2013-06-04 20:28:00,
2013-06-04 16:43:00,80.8,68.8,29.84,ENE,67,2.2,-999.0,67,-99.99,,,0.00,Acu-Link.com,2013-06-04 20:43:00,
2013-06-04 16:59:00,81.5,69.5,29.84,ESE,112,2.7,-999.0,67,-99.99,,,0.00,Acu-Link.com,2013-06-04 20:59:00,
2013-06-04 17:14:00,81.1,69.1,29.84,SSE,157,2.7,-999.0,67,-99.99,,,0.00,Acu-Link.com,2013-06-04 21:14:00,
2013-06-04 17:29:00,81.0,68.5,29.83,East,90,1.7,-999.0,66,-99.99,,,0.00,Acu-Link.com,2013-06-04 21:29:00,
2013-06-04 17:44:00,80.8,69.2,29.83,ESE,112,3.2,-999.0,68,-99.99,,,0.00,Acu-Link.com,2013-06-04 21:44:00,
2013-06-04 17:59:00,80.6,68.2,29.83,ESE,112,1.7,-999.0,66,-99.99,,,0.00,Acu-Link.com,2013-06-04 21:59:00,
2013-06-04 18:14:00,79.3,68.2,29.82,ENE,67,3.2,-999.0,69,-99.99,,,0.00,Acu-Link.com,2013-06-04 22:14:00,
2013-06-04 18:29:00,79.0,68.8,29.83,East,90,1.1,-999.0,71,-99.99,,,0.00,Acu-Link.com,2013-06-04 22:29:00,
2013-06-04 18:44:00,79.2,69.4,29.83,ESE,112,2.7,-999.0,72,-99.99,,,0.00,Acu-Link.com,2013-06-04 22:44:00,
2013-06-04 18:59:00,78.6,69.6,29.83,ENE,67,1.7,-999.0,74,-99.99,,,0.00,Acu-Link.com,2013-06-04 22:59:00,
2013-06-04 19:15:00,77.7,69.1,29.84,NE,45,1.7,-999.0,75,-99.99,,,0.00,Acu-Link.com,2013-06-04 23:15:00,
2013-06-04 19:30:00,77.0,69.2,29.85,ENE,67,0.0,-999.0,77,-99.99,,,0.00,Acu-Link.com,2013-06-04 23:30:00,
2013-06-04 19:45:00,76.5,69.5,29.85,ENE,67,0.0,-999.0,79,-99.99,,,0.00,Acu-Link.com,2013-06-04 23:45:00,
2013-06-04 20:00:00,75.7,68.7,29.86,East,90,2.2,-999.0,79,-99.99,,,0.00,Acu-Link.com,2013-06-05 00:00:00,
2013-06-04 20:15:00,75.2,68.2,29.86,East,90,2.2,-999.0,79,-99.99,,,0.00,Acu-Link.com,2013-06-05 00:15:00,
2013-06-04 20:30:00,74.5,68.6,29.87,East,90,0.0,-999.0,82,-99.99,,,0.00,Acu-Link.com,2013-06-05 00:30:00,
2013-06-04 20:45:00,73.8,67.9,29.86,ENE,67,2.2,-999.0,82,-99.99,,,0.00,Acu-Link.com,2013-06-05 00:45:00,
2013-06-04 21:00:00,73.8,67.9,29.87,East,90,1.7,-999.0,82,-99.99,,,0.00,Acu-Link.com,2013-06-05 01:00:00,
2013-06-04 21:15:00,73.8,67.9,29.88,ENE,67,1.7,-999.0,82,-99.99,,,0.00,Acu-Link.com,2013-06-05 01:15:00,
2013-06-04 21:31:00,73.4,67.6,29.88,ENE,67,2.7,-999.0,82,-99.99,,,0.00,Acu-Link.com,2013-06-05 01:31:00,
2013-06-04 21:46:00,73.0,67.2,29.88,ENE,67,2.7,-999.0,82,-99.99,,,0.00,Acu-Link.com,2013-06-05 01:46:00,
2013-06-04 22:31:00,72.0,66.9,29.90,ENE,67,2.7,-999.0,84,-99.99,,,0.00,Acu-Link.com,2013-06-05 02:31:00,
2013-06-04 22:46:00,71.4,66.6,29.89,NE,45,2.2,-999.0,85,-99.99,,,0.00,Acu-Link.com,2013-06-05 02:46:00,
2013-06-04 23:01:00,70.7,66.0,29.90,East,90,1.1,-999.0,85,-99.99,,,0.00,Acu-Link.com,2013-06-05 03:01:00,
2013-06-04 23:16:00,70.3,65.9,29.89,East,90,1.7,-999.0,86,-99.99,,,0.00,Acu-Link.com,2013-06-05 03:16:00,
2013-06-04 23:31:00,70.2,65.8,29.89,ENE,67,2.7,-999.0,86,-99.99,,,0.00,Acu-Link.com,2013-06-05 03:31:00,
2013-06-04 23:47:00,70.0,65.6,29.90,East,90,2.2,-999.0,86,-99.99,,,0.00,Acu-Link.com,2013-06-05 03:47:00,